[[{"header":{"parameterUnit":"m.s-1","parameterCategory":1,"la1":30.2991,"la2":30.254,"lo1":-89.0895,"lo2":-89.0444,"dy":0.0017,"dx":0.0017,"nx":28,"ny":28,"refTime":"2025-09-16T21:00:00:Z","depth":0,"parameterNumber":2,"parameterNumberName":"U-component_of_WINDS"},"data":[0,0,0,0,0,0,0,0,0,0,0,0,0,0,0,0,0,0,0,0,0,0,0,0,0,0,0,0,0,0,0,0,0,0,0,0,0,0,0,0,0,0,0,0,0,0,0,0,0,0,0,0,0,0,0,0,0,0,-1.2836,-1.2836,0,-1.2848,-1.2848,-1.2848,-1.2832,-1.2831,-1.283,-1.283,-1.2842,-1.2843,-1.2844,0,0,0,0,0,0,0,0,0,0,0,0,0,-1.2798,-1.2799,-1.2836,-1.2836,-1.2836,-1.2848,-1.2848,-1.2848,-1.2832,-1.2831,-1.283,-1.283,-1.2842,-1.2843,-1.2844,0,0,0,0,0,0,0,0,0,0,0,0,0,-1.2813,-1.2799,-1.2836,-1.2829,-1.2829,-1.2848,-1.2848,-1.2848,-1.2832,-1.2831,-1.283,-1.2829,-1.2841,-1.2843,-1.2844,-1.287,0,0,-1.2848,-1.2848,0,0,0,0,0,0,0,0,-1.2812,-1.2814,-1.283,-1.283,-1.2829,-1.2837,-1.2839,-1.2856,-1.2832,-1.2831,-1.283,-1.2829,-1.2841,-1.2842,-1.2847,-1.2871,-1.2871,-1.2848,-1.2849,-1.2849,-1.285,0,0,0,0,0,0,0,-1.2811,-1.2814,-1.2841,-1.283,-1.283,-1.2826,-1.2827,-1.2842,-1.2841,-1.2831,-1.283,-1.2831,-1.2841,-1.2845,-1.2847,-1.2871,-1.2848,-1.2849,-1.285,-1.285,-1.2918,-1.2919,0,0,0,0,0,0,-1.2811,-1.2813,-1.284,-1.2841,-1.2818,-1.2827,-1.2828,-1.2836,-1.2841,-1.284,-1.2832,-1.283,-1.2844,-1.2845,-1.2847,-1.2878,-1.2849,-1.2851,-1.2851,-1.2917,-1.2918,-1.2919,0,0,0,0,0,0,-1.281,-1.2813,-1.284,-1.2827,-1.283,-1.2829,-1.2837,-1.2836,-1.2841,-1.2841,-1.2841,-1.2837,-1.2843,-1.2845,-1.2865,-1.2879,-1.2851,-1.2852,-1.2916,-1.2917,-1.2919,-1.2941,0,0,0,0,0,0,-1.2809,-1.2813,-1.2823,-1.2827,-1.283,-1.2857,-1.2838,-1.2837,-1.2843,-1.2841,-1.2846,-1.2846,-1.2842,-1.2863,-1.2866,-1.288,-1.2853,-1.2915,-1.2917,-1.2918,-1.2939,-1.2943,-1.2947,0,0,0,0,0,-1.2808,-1.2829,-1.2824,-1.2827,-1.2843,-1.2858,-1.286,-1.2855,-1.2845,-1.2855,-1.2855,-1.2846,-1.2877,-1.2865,-1.2868,-1.2883,-1.2914,-1.2916,-1.2918,-1.2937,-1.2942,-1.2947,0,0,0,0,0,0,-1.2826,-1.2829,-1.2823,-1.2846,-1.2852,-1.2855,-1.2867,-1.2861,-1.2869,-1.2867,-1.2861,-1.2862,-1.2883,-1.2885,-1.2872,-1.2909,-1.2893,-1.2897,-1.2907,-1.2912,-1.2915,-1.2914,-1.2855,0,0,0,0,0,-1.2833,-1.2845,-1.2847,-1.2866,-1.287,-1.2868,-1.2875,-1.2871,-1.2876,-1.2879,-1.288,-1.2886,-1.2897,-1.2905,-1.2915,-1.294,-1.2941,-1.2951,-1.2955,-1.2958,-1.2961,-1.2975,-1.298,-1.2927,-1.2927,-1.2927,0,0,-1.2846,-1.2849,-1.2857,-1.287,-1.2874,-1.2887,-1.287,-1.2884,-1.2894,-1.2881,-1.2899,-1.2901,-1.2907,-1.2929,-1.2939,-1.2932,-1.2976,-1.2961,-1.2964,-1.2965,-1.2978,-1.2983,-1.2987,-1.2928,-1.2928,-1.2928,0,0,-1.2878,-1.2881,-1.2899,-1.2903,-1.291,-1.2909,-1.2913,-1.2917,-1.2918,-1.2937,-1.2927,-1.2939,-1.2958,-1.2963,-1.2968,-1.3003,-1.2995,-1.3006,-1.3026,-1.3039,-1.3044,-1.3047,-1.306,-1.3065,-1.3009,-1.3009,-1.3009,0,-1.2894,-1.2913,-1.2908,-1.2923,-1.2929,-1.2919,-1.2936,-1.2941,-1.295,-1.2955,-1.2946,-1.297,-1.2974,-1.2998,-1.3006,-1.3011,-1.3015,-1.3005,-1.3043,-1.3047,-1.305,-1.3063,-1.3067,-1.301,-1.301,-1.301,-1.301,0,-1.2933,-1.2946,-1.2959,-1.2969,-1.2977,-1.2993,-1.2991,-1.2999,-1.2995,-1.2995,-1.3015,-1.3019,-1.303,-1.3035,-1.3031,-1.3059,-1.3054,-1.3044,-1.3029,-1.3057,-1.3068,-1.3073,-1.3012,-1.3012,-1.3011,-1.3011,0,0,-1.2975,-1.2983,-1.2988,-1.2993,-1.3,-1.301,-1.3026,-1.3037,-1.3044,-1.3052,-1.3065,-1.3082,-1.3074,-1.308,-1.3076,-1.3088,-1.3116,-1.3077,-1.3077,-1.3085,-1.3148,-1.3154,-1.316,-1.3111,-1.3112,-1.3113,-1.3147,0,-1.3007,-1.3035,-1.3031,-1.3058,-1.3071,-1.3061,-1.3075,-1.3081,-1.3082,-1.3093,-1.3094,-1.3106,-1.3094,-1.3097,-1.3109,-1.311,-1.3129,-1.3108,-1.3124,-1.3124,-1.3122,-1.3166,-1.3173,-1.3205,-1.3151,-1.3152,-1.3153,0,-1.3047,-1.3056,-1.3084,-1.309,-1.3095,-1.3108,-1.3119,-1.3129,-1.3136,-1.3136,-1.3143,-1.3137,-1.3154,-1.3138,-1.3161,-1.3147,-1.3154,-1.3156,-1.3157,-1.3158,-1.314,-1.3168,-1.3215,-1.322,-1.316,-1.3159,-1.3159,0,-1.3076,-1.3095,-1.3114,-1.3119,-1.3126,-1.3135,-1.3139,-1.3145,-1.3152,-1.3161,-1.3166,-1.3177,-1.3183,-1.3192,-1.319,-1.3179,-1.3214,-1.3197,-1.3214,-1.3214,-1.3221,-1.3221,-1.327,-1.3226,-1.3226,-1.3226,-1.3226,0,-1.3111,-1.3129,-1.3127,-1.3139,-1.3159,-1.3155,-1.3175,-1.3177,-1.3183,-1.3195,-1.3188,-1.32,-1.3197,-1.3208,-1.3207,-1.3227,-1.3229,-1.323,-1.3229,-1.323,-1.323,-1.3234,-1.3232,-1.3227,-1.3227,-1.3226,-1.3226,0,-1.3146,-1.3146,-1.3166,-1.3172,-1.3174,-1.3188,-1.3193,-1.3204,-1.3205,-1.3221,-1.3224,-1.3225,-1.3239,-1.3238,-1.3253,-1.3253,-1.3277,-1.3274,-1.3275,-1.3274,-1.329,-1.3289,-1.3344,-1.3351,-1.3302,-1.3303,-1.3303,0,-1.3168,-1.3182,-1.3189,-1.3197,-1.3201,-1.3214,-1.3222,-1.3219,-1.3227,-1.3237,-1.3247,-1.3261,-1.3271,-1.3293,-1.3296,-1.3308,-1.3305,-1.3323,-1.3306,-1.3307,-1.3305,-1.3304,-1.3306,-1.3326,-1.3327,-1.3327,-1.3328,0,-1.3209,-1.3208,-1.3219,-1.3231,-1.3241,-1.3249,-1.3258,-1.3265,-1.3263,-1.3273,-1.3287,-1.3295,-1.3311,-1.3324,-1.3336,-1.334,-1.3334,-1.3333,-1.3337,-1.3339,-1.3339,-1.3339,-1.3283,-1.3332,-1.3331,-1.3331,-1.3331,-1.3331,-1.3238,-1.325,-1.3257,-1.327,-1.3276,-1.3284,-1.3295,-1.3298,-1.331,-1.3323,-1.3321,-1.3337,-1.3344,-1.3359,-1.3364,-1.3377,-1.3371,-1.3377,-1.3379,-1.338,-1.3382,-1.3337,-1.3379,-1.3379,-1.3379,-1.3379,-1.3379,0,-1.3278,-1.3282,-1.3295,-1.3307,-1.3317,-1.3311,-1.332,-1.3329,-1.3343,-1.3351,-1.3362,-1.3378,-1.3392,-1.3395,-1.3408,-1.3418,-1.3415,-1.3421,-1.342,-1.3421,-1.3387,-1.3382,-1.3423,-1.3423,-1.3423,-1.3423,-1.3423,-1.3423,-1.33,-1.332,-1.332,-1.3343,-1.3348,-1.3363,-1.3369,-1.3377,-1.3383,-1.3402,-1.3413,-1.3416,-1.3422,-1.3435,-1.3448,-1.3448,-1.3453,-1.3461,-1.346,-1.3428,-1.3424,-1.3419,-1.3415,-1.3462,-1.3462,-1.3493,-1.3494,-1.3494]},{"header":{"parameterUnit":"m.s-1","parameterCategory":1,"la1":30.2991,"la2":30.254,"lo1":-89.0895,"lo2":-89.0444,"dy":0.0017,"dx":0.0017,"nx":28,"ny":28,"refTime":"2025-09-16T21:00:00:Z","depth":0,"parameterNumber":3,"parameterNumberName":"V-component_of_WINDS"},"data":[0,0,0,0,0,0,0,0,0,0,0,0,0,0,0,0,0,0,0,0,0,0,0,0,0,0,0,0,0,0,0,0,0,0,0,0,0,0,0,0,0,0,0,0,0,0,0,0,0,0,0,0,0,0,0,0,0,0,1.3137,1.3136,0,1.3085,1.3084,1.3083,1.3057,1.3057,1.3057,1.3057,1.3002,1.3,1.2999,0,0,0,0,0,0,0,0,0,0,0,0,0,1.321,1.3209,1.3137,1.3136,1.3135,1.3085,1.3084,1.3083,1.3057,1.3057,1.3057,1.3057,1.3002,1.3,1.2999,0,0,0,0,0,0,0,0,0,0,0,0,0,1.317,1.3209,1.3137,1.3116,1.3114,1.3085,1.3084,1.3083,1.3057,1.3057,1.3057,1.3057,1.3003,1.3,1.2998,1.2985,0,0,1.2992,1.2991,0,0,0,0,0,0,0,0,1.3172,1.3168,1.312,1.3118,1.3115,1.3077,1.309,1.305,1.3057,1.3078,1.3057,1.3057,1.3027,1.3022,1.3013,1.2983,1.298,1.2991,1.299,1.2989,1.2989,0,0,0,0,0,0,0,1.3175,1.317,1.3116,1.3119,1.3116,1.3108,1.3103,1.3082,1.3053,1.3077,1.3074,1.3069,1.3025,1.3015,1.3011,1.298,1.2992,1.299,1.2988,1.2987,1.2933,1.2933,0,0,0,0,0,0,1.3182,1.3172,1.3118,1.3114,1.3144,1.3107,1.3101,1.3089,1.3053,1.3048,1.3069,1.3068,1.3019,1.3014,1.3009,1.299,1.2989,1.2987,1.2986,1.2934,1.2933,1.2933,0,0,0,0,0,0,1.3183,1.3177,1.312,1.3143,1.3135,1.3106,1.3093,1.3088,1.3078,1.3048,1.3042,1.3064,1.3018,1.3012,1.2991,1.2988,1.2986,1.2984,1.2934,1.2933,1.2933,1.2952,0,0,0,0,0,0,1.3186,1.3178,1.3174,1.3143,1.3134,1.3104,1.3093,1.3087,1.3074,1.3072,1.3041,1.3036,1.3018,1.2994,1.2989,1.2984,1.2982,1.2934,1.2934,1.2933,1.2952,1.2953,1.2953,0,0,0,0,0,1.3188,1.3181,1.3174,1.3167,1.3128,1.3104,1.3098,1.3078,1.3074,1.3069,1.3049,1.3037,1.2989,1.2992,1.2986,1.2981,1.2934,1.2934,1.2933,1.2951,1.2952,1.2953,0,0,0,0,0,0,1.3212,1.3177,1.3168,1.3151,1.313,1.3099,1.3092,1.308,1.306,1.3059,1.3034,1.3027,1.3007,1.2992,1.2997,1.2965,1.296,1.2958,1.2976,1.2977,1.2978,1.2981,1.2981,0,0,0,0,0,1.3216,1.32,1.3169,1.3157,1.3147,1.3121,1.311,1.3096,1.3074,1.3065,1.3043,1.3021,1.3001,1.2988,1.2968,1.2949,1.2941,1.2942,1.2943,1.2944,1.2943,1.293,1.2929,1.2932,1.2932,1.2932,0,0,1.3223,1.3201,1.3193,1.3161,1.3144,1.3126,1.3114,1.3097,1.3084,1.3062,1.304,1.3024,1.2997,1.2977,1.2967,1.2963,1.294,1.2944,1.2945,1.2943,1.2929,1.2929,1.2929,1.2932,1.2932,1.2932,0,0,1.3226,1.3209,1.3195,1.3178,1.3151,1.3134,1.3131,1.3101,1.3089,1.3067,1.3049,1.3032,1.2998,1.298,1.2966,1.2959,1.2947,1.2953,1.2958,1.2945,1.2945,1.2944,1.294,1.2939,1.2952,1.2952,1.2952,0,1.3237,1.3211,1.319,1.3173,1.3159,1.3138,1.3124,1.3108,1.3076,1.3066,1.3063,1.3018,1.2999,1.2973,1.2971,1.2961,1.2955,1.2957,1.2947,1.2946,1.2945,1.2941,1.294,1.2953,1.2953,1.2953,1.2953,0,1.3226,1.3208,1.32,1.317,1.3155,1.3139,1.3114,1.3101,1.3088,1.3071,1.3047,1.3023,1.2997,1.2989,1.2977,1.296,1.2959,1.2952,1.2946,1.2946,1.2942,1.294,1.2954,1.2954,1.2954,1.2953,0,0,1.3243,1.32,1.3198,1.3182,1.3151,1.3136,1.3119,1.3093,1.3081,1.306,1.3043,1.3014,1.3006,1.299,1.2975,1.2964,1.2958,1.2957,1.2956,1.2957,1.2936,1.2941,1.294,1.2949,1.2949,1.2949,1.2938,0,1.3241,1.321,1.3189,1.3165,1.3147,1.3126,1.3111,1.3089,1.3071,1.3053,1.3033,1.3012,1.3004,1.2994,1.2982,1.2961,1.2953,1.2962,1.2932,1.2931,1.2939,1.2938,1.2943,1.2935,1.2936,1.2936,1.2936,0,1.3234,1.3213,1.3187,1.3155,1.3147,1.3134,1.3107,1.309,1.3064,1.3052,1.3033,1.3017,1.2996,1.2992,1.2961,1.2968,1.2954,1.2941,1.2941,1.2936,1.2933,1.2932,1.2931,1.293,1.2933,1.2933,1.2933,0,1.3248,1.3212,1.3192,1.318,1.3143,1.3133,1.3117,1.3091,1.3076,1.3053,1.3042,1.3017,1.3002,1.2982,1.2959,1.2959,1.293,1.2925,1.2918,1.2918,1.2912,1.2913,1.2908,1.2905,1.2905,1.2905,1.2905,0,1.3247,1.3231,1.3197,1.3184,1.3166,1.3141,1.3123,1.3106,1.3082,1.3064,1.3045,1.3028,1.2999,1.2978,1.296,1.2936,1.293,1.2918,1.2914,1.292,1.2921,1.291,1.291,1.2905,1.2905,1.2905,1.2905,0,1.3259,1.3235,1.3211,1.3178,1.3169,1.3156,1.3127,1.3113,1.3094,1.3071,1.3065,1.3035,1.3009,1.2984,1.295,1.2937,1.2913,1.2907,1.2922,1.2919,1.2913,1.2913,1.29,1.2896,1.2898,1.2898,1.2898,0,1.3259,1.3247,1.3211,1.3198,1.3183,1.3162,1.3146,1.3121,1.3106,1.3073,1.3063,1.3036,1.3013,1.2973,1.2947,1.292,1.2913,1.291,1.2908,1.2914,1.2911,1.2911,1.2909,1.291,1.2911,1.2911,1.2911,0,1.3262,1.325,1.3229,1.3203,1.3185,1.3163,1.3141,1.3131,1.3101,1.3084,1.3058,1.304,1.3004,1.2977,1.2947,1.2929,1.2914,1.2911,1.2908,1.2914,1.2922,1.2916,1.2923,1.2912,1.2912,1.2911,1.2911,1.2911,1.3267,1.3254,1.3227,1.3203,1.3183,1.3162,1.3147,1.3125,1.3103,1.3073,1.3059,1.3032,1.3003,1.2961,1.2943,1.2921,1.2917,1.2913,1.2911,1.291,1.2911,1.2926,1.2915,1.2915,1.2915,1.2915,1.2915,0,1.3267,1.3248,1.3227,1.3195,1.3176,1.3164,1.3138,1.3123,1.3099,1.3075,1.3052,1.3021,1.2994,1.2965,1.2936,1.2923,1.2916,1.2916,1.2916,1.2912,1.2917,1.2922,1.2923,1.2923,1.2923,1.2923,1.2923,1.2923,1.3265,1.3242,1.3227,1.3193,1.3174,1.3148,1.3134,1.3113,1.3093,1.3059,1.3037,1.3018,1.2991,1.296,1.2934,1.2926,1.2915,1.2918,1.2908,1.2913,1.2912,1.2912,1.2916,1.2916,1.2916,1.2905,1.2905,1.2905]}]]